User: anonymous   Login
Location: Castillon
(43.0896°N, 0.2156°E)
Time: 23:12:30
(UTC+00:00)
Language:

Cosmos 2333 Rocket - Orbit

View from above orbital plane
View from above orbital plane
View from above satellite
View from above satellite

Ground track
Ground track

The orbit data is extracted from the following two-line orbital elements,

1 24298U 96051B   21269.57338998 -.00000161  00000-0 -61017-4 0  9997
2 24298  70.8271   7.6351 0014646  10.8809 349.2625 14.12415443292172
Epoch (UTC): 26 September 2021 13:45:40
Eccentricity: 0.0014646
inclination: 70.8271°
perigee height: 840 km
apogee height: 862 km
right ascension of ascending node: 7.6351°
argument of perigee: 10.8809°
revolutions per day: 14.12415443
mean anomaly at epoch: 349.2625°
orbit number at epoch: 29217

The dashed part of the orbit path shows where the satellite is in the earth's shadow,  

DLR